User: anonymous   Login
Location: Young's Pond
(41.2695°N, 72.7766°W)
Time: 01:26:01
(UTC-04:00)
Language:

CZ-4B R/B - Orbit

View from above orbital plane
View from above orbital plane
View from above satellite
View from above satellite

Ground track
Ground track

The orbit data is extracted from the following two-line orbital elements,

1 29093U 06015B   18174.54187572 +.00002735 +00000-0 +61482-4 0  9997
2 29093 097.5291 300.8452 0061268 061.2090 299.5291 15.42314621674622
Epoch (UTC): 23 June 2018 13:00:18
Eccentricity: 0.0061268
inclination: 97.5291°
perigee height: 397 km
apogee height: 481 km
right ascension of ascending node: 300.8452°
argument of perigee: 61.2090°
revolutions per day: 15.42314621
mean anomaly at epoch: 299.5291°
orbit number at epoch: 67462

The dashed part of the orbit path shows where the satellite is in the earth's shadow,  

DLR